Location: Olsztyn
(53.7767°N, 20.4765°E)
Time: 08:08:24
(UTC+01:00)

Transit 4A - Pass Details

Date: 06 October 2022
Orbit: 871 x 972 km, 66.8° (Epoch: 06 December)

Event Time Altitude Azimuth Distance (km) Brightness Sun altitude
Exits shadow 02:42:53 18° 328° (NNW) 2,088 9.8 -33.9°
Maximum altitude 02:45:33 23° 3° (N) 1,795 9.8 -33.7°
Drops below altitude 10° 02:50:11 10° 55° (NE) 2,545 11.0 -33.2°
Sets 02:53:12 0° 70° (ENE) 3,474 11.8 -32.9°
